N5AET-1 Weather Reports


Display with metric or nautical units.
time (UTC)temp
F
wind
direction
speed
MPH
gust
MPH
rain 1hr
in
rain 24hr
in
rain mn
in
humidity
%
barometer
mb
20260904013516 85 156 1.0 3.0 0.00 0.00 0.00 70 986.5
20260904012515 85 163 2.0 4.0 0.00 0.00 0.00 69 986.5
20260904011515 85 147 1.0 3.0 0.00 0.00 0.00 67 986.4
20260904010515 86 144 1.0 3.0 0.00 0.00 0.00 67 986.4
20260904005515 86 154 1.0 3.0 0.00 0.00 0.00 66 986.5
20260904004516 86 157 2.0 3.0 0.00 0.00 0.00 64 986.5
20260904003516 87 177 1.0 5.0 0.00 0.00 0.00 62 986.4
20260904002536 87 178 2.0 3.0 0.00 0.00 0.00 63 986.3
20260904001515 88 159 1.0 3.0 0.00 0.00 0.00 63 986.3
20260904000515 88 142 4.0 6.0 0.00 0.00 0.00 63 986.2
20260903235536 88 161 2.0 4.0 0.00 0.00 0.00 63 986.1
20260903234536 89 157 2.0 5.0 0.00 0.00 0.00 64 986.0
20260903233516 89 94 3.0 10.0 0.00 0.00 0.00 64 985.9
20260903232536 90 82 4.0 11.0 0.00 0.00 0.00 62 985.8
20260903231516 90 151 0.0 2.0 0.00 0.00 0.00 61 985.9
20260903230516 91 123 1.0 2.0 0.00 0.00 0.00 58 985.9
20260903225515 91 158 1.0 3.0 0.00 0.00 0.00 58 985.8
20260903224535 91 130 0.0 4.0 0.00 0.00 0.00 57 985.8
20260903223516 91 150 3.0 5.0 0.00 0.00 0.00 57 985.8
20260903222516 91 199 1.0 3.0 0.00 0.00 0.00 57 985.8
20260903221515 91 143 2.0 5.0 0.00 0.00 0.00 58 985.7
20260903220536 91 145 1.0 5.0 0.00 0.00 0.00 58 985.7
20260903215516 91 86 2.0 8.0 0.00 0.00 0.00 58 985.9
20260903214516 92 123 1.0 5.0 0.00 0.00 0.00 58 986.0
20260903213516 91 139 2.0 3.0 0.00 0.00 0.00 59 986.2
20260903212516 92 196 0.0 2.0 0.00 0.00 0.00 58 986.1
20260903211516 91 126 0.0 3.0 0.00 0.00 0.00 60 986.2
20260903210535 90 138 1.0 7.0 0.00 0.00 0.00 61 986.3
20260903205516 90 161 2.0 4.0 0.00 0.00 0.00 61 986.4
20260903204515 90 145 2.0 5.0 0.00 0.00 0.00 62 986.5
20260903203515 90 139 0.0 1.0 0.00 0.00 0.00 62 986.7
20260903202535 91 134 1.0 4.0 0.00 0.00 0.00 61 986.8
20260903201516 90 162 1.0 3.0 0.00 0.00 0.00 63 987.0
20260903200515 88 146 1.0 3.0 0.00 0.00 0.00 65 987.0
20260903195555 87 175 0.0 1.0 0.00 0.00 0.00 68 987.1
20260903194515 86 153 1.0 4.0 0.00 0.00 0.00 69 987.1
20260903193515 87 88 0.0 3.0 0.00 0.00 0.00 68 987.2
20260903192515 87 145 1.0 3.0 0.00 0.00 0.00 66 987.3
20260903191535 88 182 0.0 4.0 0.00 0.00 0.00 66 987.5
20260903190516 89 188 3.0 6.0 0.00 0.00 0.00 66 987.6
20260903185516 88 140 3.0 5.0 0.00 0.00 0.00 67 987.7
20260903184516 86 141 2.0 4.0 0.00 0.00 0.00 71 987.9
20260903183515 86 169 3.0 7.0 0.00 0.00 0.00 71 988.1
20260903182516 86 208 1.0 3.0 0.00 0.00 0.00 72 988.1
20260903181535 86 173 2.0 7.0 0.00 0.00 0.00 72 988.2
20260903180515 85 176 1.0 4.0 0.00 0.00 0.00 75 988.2
20260903175616 84 174 3.0 6.0 0.00 0.00 0.00 78 988.5
20260903174515 83 198 0.0 3.0 0.00 0.00 0.00 79 988.5
20260903173536 83 178 1.0 3.0 0.00 0.00 0.00 80 988.6
20260903172535 84 153 1.0 4.0 0.00 0.00 0.00 79 988.6
20260903171515 83 152 1.0 2.0 0.00 0.00 0.00 81 988.6
20260903170515 83 155 1.0 5.0 0.00 0.00 0.00 81 988.7
20260903165515 83 128 0.0 1.0 0.00 0.00 0.00 81 988.7
20260903164515 83 242 0.0 4.0 0.00 0.00 0.00 82 988.6
20260903163516 83 202 0.0 2.0 0.00 0.00 0.00 83 988.6
20260903162516 83 0.0 0.0 0.00 0.00 0.00 83 988.6
20260903161516 83 0.0 0.0 0.00 0.00 0.00 84 988.6
20260903160515 82 146 1.0 4.0 0.00 0.00 0.00 85 988.6
20260903155516 82 0.0 0.0 0.00 0.00 0.00 87 988.5
20260903154515 81 144 0.0 2.0 0.00 0.00 0.00 87 988.5
20260903153515 81 0.0 0.0 0.00 0.00 0.00 88 988.5
20260903152515 81 0.0 0.0 0.00 0.00 0.00 88 988.5
20260903151515 81 155 0.0 1.0 0.00 0.00 0.00 88 988.5
20260903150536 80 0.0 0.0 0.00 0.00 0.00 89 988.5
20260903145515 80 0.0 2.0 0.00 0.00 0.00 89 988.5
20260903144515 80 0.0 0.0 0.00 0.00 0.00 90 988.5
20260903143515 80 0.0 0.0 0.00 0.00 0.00 90 988.6
20260903142515 79 176 0.0 2.0 0.00 0.00 0.00 90 988.6
20260903141515 79 139 0.0 2.0 0.00 0.00 0.00 91 988.6
20260903140515 79 0.0 1.0 0.00 0.00 0.00 91 988.6
20260903135515 79 148 1.0 3.0 0.00 0.00 0.00 92 988.7
20260903134515 78 0.0 0.0 0.00 0.00 0.00 92 988.7
20260903133515 78 0.0 0.0 0.00 0.00 0.00 92 988.7
20260903132515 78 0.0 1.0 0.00 0.00 0.00 92 988.5
20260903131516 78 146 0.0 1.0 0.00 0.00 0.00 92 988.4
20260903130515 78 0.0 0.0 0.00 0.00 0.00 92 988.3
20260903125515 77 157 0.0 2.0 0.00 0.00 0.00 93 988.3
20260903124515 77 0.0 1.0 0.00 0.00 0.00 93 988.3
20260903123515 77 0.0 0.0 0.00 0.00 0.00 93 988.2
20260903122515 77 78 0.0 3.0 0.00 0.00 0.00 93 988.2
20260903121515 77 99 0.0 3.0 0.00 0.00 0.00 92 988.1
20260903120536 77 0.0 0.0 0.00 0.00 0.00 91 988.0
20260903115515 77 0.0 0.0 0.00 0.00 0.00 91 987.9
20260903114535 77 0.0 0.0 0.00 0.00 0.00 91 987.6
20260903113516 77 0.0 0.0 0.00 0.00 0.00 92 987.8
20260903112515 77 0.0 0.0 0.00 0.00 0.00 92 987.8
20260903111515 77 0.0 0.0 0.00 0.00 0.00 93 987.9
20260903110536 77 156 0.0 2.0 0.00 0.00 0.00 93 987.9
20260903105556 77 0.0 0.0 0.00 0.00 0.00 92 987.9
20260903104516 77 0.0 0.0 0.00 0.00 0.00 92 987.7
20260903103515 77 156 1.0 3.0 0.00 0.00 0.00 91 987.6
20260903102515 77 0.0 0.0 0.00 0.00 0.00 89 987.4
20260903101515 78 0.0 0.0 0.00 0.00 0.00 88 987.4
20260903100516 78 0.0 0.0 0.00 0.00 0.00 87 987.4
20260903095535 78 0.0 0.0 0.00 0.00 0.00 87 987.5
20260903094515 78 266 1.0 4.0 0.00 0.00 0.00 88 987.4
20260903093516 78 267 2.0 5.0 0.00 0.00 0.00 90 987.4
20260903092515 77 0.0 0.0 0.00 0.00 0.00 93 987.5
20260903091515 77 0.0 0.0 0.00 0.00 0.00 93 987.6
20260903090516 77 0.0 0.0 0.00 0.00 0.00 93 987.6
20260903085535 77 0.0 0.0 0.00 0.00 0.00 93 987.5
20260903084515 77 0.0 0.0 0.00 0.00 0.00 93 987.3
20260903083515 77 0.0 0.0 0.00 0.00 0.00 93 987.4
20260903082515 77 0.0 0.0 0.00 0.00 0.00 92 987.4
20260903081515 77 0.0 1.0 0.00 0.00 0.00 92 987.4
20260903080515 77 0.0 0.0 0.00 0.00 0.00 91 987.4
20260903075515 78 0.0 0.0 0.00 0.00 0.00 90 987.4
20260903074515 78 79 1.0 4.0 0.00 0.00 0.00 88 987.2
20260903073515 79 0.0 0.0 0.00 0.00 0.00 86 987.2
20260903072516 79 84 1.0 5.0 0.00 0.00 0.00 83 987.3
20260903071515 80 92 2.0 6.0 0.00 0.00 0.00 83 987.3
20260903070515 80 36 0.0 3.0 0.00 0.00 0.00 82 987.4
20260903065535 80 0.0 0.0 0.00 0.00 0.00 82 987.3
20260903064515 80 0.0 0.0 0.00 0.00 0.00 82 987.4
20260903063535 80 0.0 1.0 0.00 0.00 0.00 82 987.4
20260903062515 80 0.0 0.0 0.00 0.00 0.00 82 987.5
20260903061515 80 0.0 6.0 0.00 0.00 0.00 82 987.5
20260903060516 80 79 1.0 5.0 0.00 0.00 0.00 81 987.6
20260903055515 80 79 2.0 6.0 0.00 0.00 0.00 81 987.8
20260903054535 80 90 3.0 12.0 0.00 0.00 0.00 80 987.9
20260903053515 80 77 3.0 9.0 0.00 0.00 0.00 78 987.9
20260903052515 80 0.0 0.0 0.00 0.00 0.00 78 987.9
20260903051515 81 87 2.0 5.0 0.00 0.00 0.00 77 988.0
20260903050515 81 103 2.0 8.0 0.00 0.00 0.00 76 988.1
20260903045516 81 88 1.0 8.0 0.00 0.00 0.00 75 988.1
20260903044516 82 149 2.0 7.0 0.00 0.00 0.00 74 988.2
20260903043516 82 109 2.0 14.0 0.00 0.00 0.00 72 988.0
20260903042516 83 82 4.0 10.0 0.00 0.00 0.00 71 988.1
20260903041536 83 144 1.0 4.0 0.00 0.00 0.00 70 988.1
20260903040516 83 74 4.0 8.0 0.00 0.00 0.00 69 988.1
20260903035516 84 197 0.0 2.0 0.00 0.00 0.00 68 988.1
20260903034516 84 0.0 6.0 0.00 0.00 0.00 68 988.1
20260903033516 84 0.0 3.0 0.00 0.00 0.00 67 988.1
20260903032556 84 0.0 0.0 0.00 0.00 0.00 66 988.1
20260903031536 85 105 2.0 5.0 0.00 0.00 0.00 65 988.1
20260903030516 85 65 1.0 9.0 0.00 0.00 0.00 64 988.0
20260903025536 85 0.0 4.0 0.00 0.00 0.00 63 988.0
20260903024516 86 114 0.0 2.0 0.00 0.00 0.00 63 988.0
20260903023536 86 86 0.0 5.0 0.00 0.00 0.00 62 987.9
20260903022536 87 156 1.0 3.0 0.00 0.00 0.00 61 987.8
20260903021516 88 150 2.0 6.0 0.00 0.00 0.00 59 987.5
20260903020516 89 132 0.0 7.0 0.00 0.00 0.00 58 987.3
20260903015516 89 145 0.0 2.0 0.00 0.00 0.00 55 987.2
20260903014516 90 77 5.0 11.0 0.00 0.00 0.00 53 987.0